Temperature
19 18 18 18 18 18 18 18 18 18 17 17 17 16 16 16 15 15 15 15 15 14 14 14 14 14 14 14 14 14 14 14 14 15 15 16 16 16 16 16 16 16 16
19 18 18 18 18 18 18 18 18 17 17 17 17 16 16 15 15 15 15 14 14 14 14 13 13 13 13 13 13 13 14 14 14 14 15 16 17 16 16 16 16 16 16
20 19 18 18 18 18 18 17 17 17 17 17 16 16 15 15 15 14 14 14 13 13 13 13 13 12 13 13 13 13 13 13 14 14 14 15 17 16 16 16 15 15 15
21 20 19 19 18 18 17 17 17 17 17 16 16 15 15 15 15 14 14 13 13 12 12 12 12 12 12 12 12 13 12 12 13 14 13 14 14 14 15 16 16 15 15
21 21 20 19 19 18 18 17 17 17 16 16 15 15 15 14 14 14 13 13 13 12 12 11 11 11 11 11 11 11 11 12 12 13 14 14 13 13 14 15 15 15 15
22 21 20 19 19 18 18 17 17 16 16 16 15 15 14 14 13 13 13 13 13 12 12 11 11 11 11 11 10 11 11 11 11 12 13 13 14 14 14 14 15 15 15
22 21 20 20 19 18 18 17 17 16 16 15 15 14 13 13 13 12 13 12 12 12 12 11 10 10 10 10 10 10 10 10 11 11 12 12 13 13 13 14 14 15 15
22 21 21 20 19 18 18 17 16 16 15 15 14 14 13 13 13 12 12 12 12 12 11 10 10 10 10 10 10 10 10 10 10 10 11 11 12 12 13 13 13 14 15
22 21 20 20 19 18 17 17 16 15 15 14 13 13 12 12 12 11 11 11 11 11 11 10 10 10 10 10 10 10 10 10 10 10 10 11 11 12 12 12 12 13 14
22 21 20 19 18 18 17 16 16 15 14 13 13 13 12 12 11 11 11 11 10 10 10 10 10 10 9 9 9 9 10 9 10 10 10 10 11 11 11 12 12 12 13
22 21 20 19 18 17 17 16 15 14 14 13 13 12 12 11 11 11 10 10 10 10 10 10 10 9 9 9 9 9 9 9 9 9 10 10 10 10 11 11 11 12 12
22 21 19 18 18 17 16 16 15 14 13 13 12 12 12 11 11 11 10 10 10 10 10 10 9 9 9 9 9 9 9 9 9 9 9 9 10 10 10 10 11 11 11
21 20 19 18 18 17 16 15 15 14 14 13 12 12 11 11 11 10 10 10 10 10 9 9 9 9 9 9 9 9 9 9 9 9 9 9 9 9 10 10 10 11 11
20 20 19 18 17 17 16 15 15 14 13 13 12 12 11 11 11 10 10 10 10 9 9 9 9 9 9 9 9 9 9 9 9 9 9 9 9 9 9 9 9 10 10
20 19 19 18 17 17 16 15 14 14 13 12 12 12 11 11 10 10 10 10 10 9 9 9 9 9 9 9 9 8 9 8 8 9 9 9 9 9 9 9 10 10 10
21 20 19 18 17 17 16 15 14 13 13 12 12 12 11 11 10 10 10 10 9 9 9 9 9 9 9 9 8 8 8 8 8 8 8 8 8 8 9 9 9 9 9
21 20 19 18 17 17 16 15 14 13 13 12 12 11 11 11 10 10 10 10 9 9 9 9 9 9 8 8 8 8 8 8 8 8 8 8 9 8 8 8 8 9 9
21 20 19 18 17 17 16 15 14 13 13 12 12 11 11 10 10 10 10 9 9 9 9 9 9 9 8 8 8 8 8 8 8 8 8 8 8 8 8 8 8 8 8
21 20 19 18 17 17 16 15 14 13 13 12 12 11 11 10 10 10 10 10 9 9 9 9 9 8 8 8 8 8 7 7 7 7 7 7 7 8 7 7 7 8 8
20 19 19 18 17 16 16 15 14 13 13 12 12 11 11 10 10 10 10 10 9 9 9 9 9 8 8 8 8 8 7 7 7 8 7 7 7 7 7 7 7 7 8
20 19 19 18 17 16 16 15 14 14 13 12 12 11 11 10 10 10 10 10 9 9 9 9 9 8 8 8 8 8 7 7 7 7 7 7 7 7 7 7 7 7 7
20 19 19 18 17 16 16 15 14 13 13 12 11 11 10 10 10 10 10 9 9 9 9 9 8 8 8 8 8 8 7 7 7 7 7 7 7 7 6 6 7 7 7
20 19 19 18 17 16 16 15 14 13 13 12 12 11 11 10 10 10 10 10 9 9 9 9 9 9 9 8 8 8 8 7 7 7 7 7 7 7 6 6 7 7 6
20 19 18 18 17 16 16 15 14 14 13 12 12 11 11 11 10 10 10 10 10 10 10 9 9 9 8 8 8 7 7 7 7 6 6 7 7 7 6 6 6 6 6
19 18 18 17 17 16 15 15 14 14 13 13 12 11 11 11 10 10 10 10 10 9 9 9 9 8 8 8 8 7 7 7 6 6 6 6 7 6 6 6 7 7 7
18 18 17 17 17 16 15 15 14 14 13 12 12 11 11 11 11 11 11 11 10 10 9 9 9 8 8 8 8 8 8 7 7 6 6 6 7 7 7 7 7 7 7
Wind_Speed
8 7 7 6 6 6 6 5 5 5 4 3 3 2 2 1 1 1 0 1 2 2 4 5 4 5 6 6 7 7 8 8 7 9 10 10 11 10 9 10 10 11 13
8 8 8 7 7 7 6 6 6 5 5 3 2 1 2 2 2 1 0 1 2 4 5 4 6 6 6 7 7 7 8 9 7 8 9 10 9 7 8 7 8 9 8
9 9 9 8 8 7 7 6 5 5 5 4 4 3 3 4 3 3 3 2 4 5 5 6 7 6 8 7 7 8 10 9 9 8 8 8 9 7 6 6 6 6 6
10 10 10 9 9 8 8 7 7 6 6 6 5 5 5 5 4 4 4 4 5 6 6 7 7 7 8 8 9 9 8 9 10 8 8 9 9 8 8 7 7 7 7
10 10 10 9 9 8 8 7 7 7 6 6 5 5 6 5 5 5 5 6 6 6 7 7 7 7 8 8 8 9 10 9 10 10 9 9 9 11 10 10 8 8 7
10 9 8 8 8 8 7 7 7 6 6 6 5 5 6 6 7 7 7 7 7 6 7 7 7 8 9 8 9 9 10 10 10 10 10 10 9 9 9 10 10 9 8
10 9 8 8 8 8 7 6 6 6 5 5 5 5 5 6 7 8 7 8 8 7 6 8 8 9 8 9 9 10 10 10 11 11 11 10 10 10 10 11 11 11 10
9 8 7 7 7 6 6 6 5 5 4 4 4 4 5 6 6 6 8 9 8 8 8 9 9 10 10 10 9 10 11 10 10 12 12 10 11 10 10 11 11 12 11
9 8 7 7 7 6 5 5 4 4 4 4 4 4 5 6 7 7 8 8 7 8 9 9 10 10 10 10 11 10 10 10 11 12 12 12 11 11 11 11 11 11 12
9 8 8 7 6 6 5 4 4 4 4 5 5 5 5 6 7 8 8 9 9 9 10 11 11 11 11 11 11 12 11 11 11 11 12 12 12 11 11 11 11 11 12
10 9 8 8 7 6 5 5 4 5 5 5 5 6 6 7 8 8 9 9 9 10 11 11 12 12 12 12 11 12 12 13 13 12 13 13 13 12 11 11 11 12 12
9 9 9 8 7 6 5 5 5 5 5 5 6 7 7 8 9 9 9 9 10 10 11 11 12 12 12 12 12 13 13 13 13 13 13 14 12 13 13 12 13 12 11
10 10 9 8 7 6 5 4 5 5 5 5 6 7 8 9 9 9 10 10 10 11 11 12 12 12 12 12 13 13 13 14 14 14 14 14 14 14 13 13 13 12 12
10 10 9 8 7 6 5 5 5 5 5 6 7 8 8 9 9 10 10 10 11 11 12 12 12 12 13 13 13 13 13 13 14 14 14 14 14 14 14 13 14 13 13
11 11 9 8 7 6 6 5 5 5 5 6 8 8 8 9 9 10 10 10 11 12 12 12 12 13 12 12 11 12 13 13 14 14 14 15 14 13 12 12 12 13 12
11 10 9 8 8 7 6 5 5 5 5 7 8 8 9 9 10 10 10 11 11 11 11 12 13 13 12 5 4 11 14 14 15 15 15 15 15 15 16 17 17 16 15
9 10 9 8 7 6 6 5 5 5 6 7 8 9 9 9 10 10 11 11 11 12 12 12 13 13 12 7 9 10 12 15 15 15 14 14 14 13 15 16 20 21 21
9 9 8 8 7 6 6 5 5 6 6 7 8 9 9 10 10 10 11 11 11 11 12 12 13 13 12 7 9 10 13 15 16 15 16 15 15 14 14 15 16 16 18
9 8 8 7 6 6 6 5 6 6 7 8 8 9 9 10 10 11 11 11 11 12 12 12 12 13 12 9 8 10 12 13 15 15 15 15 15 13 10 15 16 16 15
9 8 8 7 7 6 6 6 7 7 8 8 8 9 9 10 11 11 12 11 11 12 12 12 12 13 13 8 7 8 11 12 12 12 12 13 14 12 9 14 15 16 16
11 10 9 8 8 7 6 7 8 8 8 8 8 9 9 10 11 11 11 11 11 12 12 13 13 12 12 10 9 9 9 11 12 11 11 10 8 11 12 13 15 15 13
12 11 10 9 8 8 8 8 8 8 7 8 9 10 10 10 10 11 11 11 11 12 12 11 12 10 9 8 7 8 11 12 12 12 11 8 3 8 11 12 13 12 11
11 11 11 10 9 8 9 9 8 7 8 9 10 10 10 10 10 11 11 11 11 11 11 11 11 10 9 7 8 11 12 12 11 11 10 10 10 10 11 15 15 12 12
10 10 10 10 9 9 9 9 9 8 8 10 10 10 10 11 10 9 10 10 10 10 11 11 11 11 10 9 7 7 7 10 11 11 10 13 14 13 11 9 11 12 12
8 8 9 9 9 8 9 9 9 8 9 10 10 10 11 10 10 10 9 11 10 9 10 11 11 11 12 8 6 9 9 9 8 9 9 9 8 8 8 9 9 10 11
6 7 7 8 7 7 8 8 8 9 10 10 10 9 9 9 9 10 10 10 12 11 14 16 14 12 13 13 12 12 12 12 9 8 10 10 9 8 8 8 9 9 10
Wind_Direction
148 146 149 152 149 144 145 151 150 148 166 172 186 192 202 225 233 228 116 288 321 326 305 303 297 283 283 290 288 284 274 270 276 278 276 269 259 258 257 254 257 251 246
160 160 166 169 166 163 165 171 176 176 191 177 204 236 268 257 254 265 195 292 319 313 300 312 293 288 290 275 279 276 284 284 273 276 285 282 271 243 253 254 251 254 252
174 173 181 184 181 180 185 188 187 193 204 201 215 215 228 246 243 257 258 291 303 301 306 296 295 300 287 284 287 282 270 278 279 268 277 284 285 300 269 257 257 260 263
186 186 188 192 195 196 196 200 200 204 206 215 233 248 269 284 293 289 292 293 285 292 292 289 288 289 292 293 279 277 280 272 274 265 255 265 284 284 284 269 258 254 257
191 195 197 198 201 202 203 202 203 208 211 223 230 247 267 282 285 287 283 287 285 279 282 282 286 285 284 291 293 290 277 273 271 276 271 263 260 256 265 278 282 273 265
194 198 202 202 206 205 206 207 205 210 213 221 233 252 274 285 293 290 294 288 287 283 278 280 281 279 284 286 279 278 270 269 275 276 275 270 267 265 268 272 273 278 276
195 198 202 204 205 207 206 206 202 209 214 223 237 252 269 277 274 284 291 291 292 290 292 293 287 284 282 279 279 273 275 272 268 265 268 269 267 270 273 276 278 281 281
197 200 200 199 197 191 189 193 197 205 212 224 240 257 268 277 285 290 297 294 293 298 306 291 283 281 279 278 275 274 269 265 265 265 267 270 267 267 265 268 277 279 278
191 190 185 181 176 175 178 184 190 204 221 236 247 258 269 284 291 288 277 285 291 290 290 288 283 280 277 275 274 270 272 270 266 264 257 255 264 261 263 264 264 271 277
187 178 170 168 165 168 167 179 198 217 234 242 255 266 273 276 279 283 293 292 290 288 287 285 284 281 277 272 269 271 265 264 264 264 269 268 266 265 261 261 259 259 266
184 175 170 166 167 172 179 194 207 223 237 253 261 272 276 283 284 283 285 287 286 287 283 284 284 282 279 275 269 267 271 266 265 264 260 258 261 265 265 260 257 255 255
178 172 170 172 179 188 199 210 224 236 248 260 264 267 275 281 284 286 289 288 286 285 285 285 283 282 281 278 273 269 269 267 265 264 264 263 260 256 258 262 261 259 259
176 173 176 184 191 200 210 224 239 250 260 266 268 272 279 284 285 289 290 288 287 287 287 285 282 282 282 280 276 273 270 268 267 265 263 262 261 260 258 258 259 258 254
181 184 187 194 199 205 214 231 249 259 265 274 277 281 285 288 288 290 290 289 289 289 287 286 284 283 282 279 276 274 273 271 269 266 263 261 259 257 257 257 255 258 259
190 194 198 198 202 210 218 233 250 257 269 278 283 287 289 289 287 288 289 290 290 289 289 288 285 283 281 276 280 284 280 276 272 269 265 261 259 266 265 264 262 258 254
201 200 202 203 208 215 223 233 248 260 267 276 284 290 291 289 289 291 291 292 292 292 290 287 287 286 284 309 299 281 283 280 275 272 269 266 255 245 237 246 258 265 262
206 204 205 207 210 215 220 233 247 260 268 276 284 289 290 290 292 295 297 297 297 295 292 290 288 287 287 274 257 258 273 275 273 271 270 267 264 252 250 238 233 242 246
211 206 206 205 206 208 214 229 249 258 268 277 285 289 291 291 293 295 297 298 297 297 294 292 292 290 289 272 258 258 266 269 269 268 268 266 268 264 263 262 254 248 240
210 205 205 204 203 209 217 230 251 262 271 279 286 291 293 293 293 296 300 301 298 296 295 294 293 290 287 266 251 260 278 272 271 270 269 268 267 261 252 259 260 258 254
199 197 196 199 202 212 217 235 255 264 273 283 288 291 290 288 291 295 298 298 296 293 296 297 295 290 288 279 250 254 276 278 278 276 272 260 256 269 253 255 256 255 253
197 195 198 204 208 208 214 237 258 268 278 285 286 286 286 286 286 290 291 293 293 295 295 294 293 288 283 274 246 239 269 281 285 283 280 278 232 238 245 250 256 258 265
203 199 202 208 208 207 215 238 256 268 277 281 282 284 286 287 290 290 289 290 292 292 291 293 294 292 283 270 258 234 248 271 279 280 280 284 259 248 248 247 251 252 255
208 205 207 211 210 210 219 240 256 264 270 274 278 282 285 284 284 286 288 289 288 291 298 302 301 301 301 282 226 236 245 248 261 275 286 289 278 267 252 241 239 237 236
210 206 209 215 217 216 222 236 250 255 261 268 274 278 280 282 283 283 285 290 296 297 301 303 303 303 300 297 294 284 266 242 249 266 265 245 246 249 256 247 223 227 231
212 207 211 219 224 224 229 237 242 246 256 264 270 275 277 280 285 282 282 286 289 292 291 298 301 300 298 316 340 305 296 295 303 305 285 274 259 245 239 236 232 227 222
204 203 211 223 231 233 239 244 243 242 252 262 266 273 277 282 283 286 287 258 250 254 246 250 264 282 280 291 290 280 273 273 276 277 269 269 265 259 251 243 233 225 223
Height
1540 1541 1542 1543 1544 1545 1546 1547 1548 1548 1549 1550 1551 1551 1551 1550 1549 1548 1546 1546 1545 1544 1543 1543 1542 1541 1541 1540 1539 1539 1538 1538 1537 1536 1535 1533 1531 1530 1529 1529 1528 1528 1529
1539 1540 1542 1543 1544 1545 1546 1547 1547 1548 1549 1549 1549 1549 1549 1548 1548 1546 1544 1543 1542 1541 1541 1539 1539 1538 1537 1536 1535 1534 1534 1534 1534 1533 1532 1529 1528 1526 1525 1524 1524 1523 1523
1538 1539 1541 1543 1544 1545 1545 1546 1546 1547 1547 1547 1548 1547 1546 1546 1546 1544 1543 1541 1539 1538 1537 1536 1535 1534 1534 1534 1532 1531 1531 1531 1530 1530 1529 1527 1524 1523 1522 1521 1520 1519 1518
1536 1538 1540 1542 1543 1544 1544 1545 1545 1545 1545 1545 1546 1546 1545 1545 1544 1542 1541 1539 1537 1535 1534 1533 1532 1531 1531 1530 1529 1529 1527 1527 1526 1526 1525 1525 1523 1522 1519 1518 1517 1516 1514
1534 1537 1538 1540 1541 1542 1543 1543 1543 1543 1543 1543 1542 1542 1542 1541 1541 1539 1537 1535 1535 1532 1531 1530 1529 1527 1527 1526 1524 1523 1523 1523 1523 1522 1521 1520 1519 1518 1517 1515 1514 1513 1512
1532 1534 1536 1537 1538 1540 1540 1541 1541 1540 1540 1540 1539 1539 1538 1537 1537 1535 1535 1533 1532 1530 1529 1527 1525 1524 1523 1522 1520 1519 1518 1518 1517 1517 1517 1516 1516 1514 1513 1511 1510 1509 1508
1529 1531 1533 1534 1535 1536 1537 1538 1537 1537 1537 1536 1536 1535 1534 1534 1533 1532 1531 1530 1529 1527 1525 1523 1521 1520 1518 1517 1516 1515 1514 1513 1512 1512 1512 1512 1511 1511 1510 1509 1506 1505 1504
1526 1528 1530 1531 1533 1534 1534 1535 1535 1534 1534 1533 1533 1532 1531 1531 1531 1529 1527 1526 1525 1523 1521 1518 1517 1515 1514 1513 1511 1510 1510 1508 1507 1507 1506 1506 1506 1506 1505 1505 1504 1501 1499
1523 1525 1527 1529 1530 1531 1532 1532 1532 1531 1531 1531 1530 1529 1528 1527 1526 1524 1523 1522 1520 1519 1517 1515 1512 1511 1509 1507 1506 1505 1504 1503 1502 1502 1502 1501 1501 1501 1500 1500 1500 1499 1496
1520 1523 1525 1526 1527 1528 1529 1529 1529 1528 1528 1528 1527 1527 1525 1524 1522 1521 1519 1517 1515 1513 1512 1510 1508 1506 1504 1503 1501 1500 1499 1498 1497 1496 1496 1495 1496 1495 1495 1495 1494 1494 1493
1517 1520 1522 1524 1525 1526 1526 1526 1526 1525 1525 1525 1523 1522 1521 1520 1519 1517 1515 1513 1511 1509 1507 1505 1503 1501 1500 1498 1496 1495 1494 1493 1492 1491 1490 1490 1489 1489 1489 1489 1489 1488 1488
1515 1517 1519 1521 1522 1523 1524 1524 1523 1523 1522 1521 1520 1519 1517 1516 1514 1513 1511 1509 1507 1505 1503 1500 1498 1496 1494 1492 1491 1489 1488 1487 1486 1485 1485 1484 1484 1483 1483 1483 1483 1483 1482
1512 1515 1517 1518 1520 1520 1521 1521 1520 1520 1519 1518 1517 1515 1514 1512 1511 1509 1507 1505 1502 1500 1498 1495 1493 1491 1489 1487 1485 1484 1482 1481 1480 1479 1479 1478 1478 1477 1477 1476 1477 1477 1477
1510 1512 1514 1515 1516 1517 1517 1517 1517 1516 1516 1515 1513 1512 1510 1509 1507 1505 1502 1500 1498 1495 1493 1490 1488 1485 1483 1481 1480 1478 1477 1475 1474 1473 1472 1472 1471 1471 1470 1470 1470 1470 1471
1507 1509 1511 1512 1513 1514 1514 1514 1513 1513 1512 1511 1510 1509 1507 1505 1503 1501 1498 1496 1493 1491 1488 1485 1482 1480 1478 1476 1475 1473 1471 1470 1468 1466 1465 1465 1464 1464 1464 1465 1465 1465 1465
1504 1506 1507 1509 1510 1510 1510 1510 1510 1509 1508 1507 1506 1505 1503 1501 1499 1497 1494 1492 1489 1486 1483 1480 1477 1475 1473 1471 1468 1466 1464 1463 1461 1460 1458 1458 1457 1456 1456 1456 1457 1458 1459
1500 1502 1504 1505 1506 1507 1507 1507 1506 1506 1505 1504 1503 1501 1499 1497 1495 1493 1491 1488 1484 1481 1478 1475 1472 1469 1467 1464 1462 1460 1458 1456 1455 1453 1452 1451 1451 1450 1450 1449 1449 1449 1450
1497 1499 1501 1502 1503 1503 1503 1503 1503 1502 1501 1500 1499 1498 1495 1493 1491 1489 1486 1483 1480 1477 1473 1470 1467 1463 1461 1458 1456 1453 1451 1449 1448 1446 1445 1443 1443 1443 1443 1443 1443 1442 1443
1494 1496 1497 1499 1499 1500 1500 1500 1499 1499 1498 1497 1495 1494 1491 1489 1487 1484 1481 1478 1475 1472 1468 1465 1461 1458 1455 1452 1450 1447 1445 1443 1441 1440 1438 1436 1435 1435 1435 1435 1435 1435 1436
1490 1492 1493 1495 1495 1496 1496 1496 1496 1495 1494 1493 1491 1489 1487 1484 1482 1479 1476 1474 1470 1467 1464 1460 1456 1453 1450 1447 1444 1442 1439 1438 1435 1433 1431 1429 1428 1428 1427 1427 1427 1427 1429
1486 1488 1489 1490 1491 1492 1492 1492 1492 1491 1490 1489 1486 1484 1482 1480 1477 1475 1472 1469 1466 1462 1459 1455 1451 1448 1444 1442 1439 1436 1434 1432 1430 1427 1425 1424 1422 1420 1420 1420 1420 1420 1422
1482 1484 1485 1486 1487 1488 1488 1488 1488 1487 1485 1484 1482 1480 1478 1476 1474 1470 1467 1464 1461 1457 1454 1450 1447 1443 1440 1437 1434 1431 1429 1426 1424 1421 1420 1418 1416 1414 1413 1412 1412 1413 1415
1478 1479 1480 1482 1483 1483 1483 1483 1483 1482 1480 1479 1477 1475 1473 1471 1468 1466 1463 1460 1457 1454 1450 1447 1443 1439 1436 1433 1429 1426 1423 1421 1418 1416 1414 1412 1409 1408 1406 1405 1406 1407 1408
1473 1474 1476 1477 1478 1479 1479 1479 1478 1477 1475 1474 1472 1470 1468 1466 1464 1461 1459 1456 1453 1450 1446 1443 1439 1435 1432 1429 1425 1422 1419 1416 1413 1411 1408 1405 1403 1402 1401 1400 1400 1400 1402
1468 1470 1471 1472 1474 1474 1474 1474 1473 1472 1471 1469 1467 1466 1464 1462 1459 1457 1454 1451 1448 1445 1441 1438 1434 1430 1427 1424 1420 1418 1415 1412 1410 1406 1404 1402 1400 1397 1396 1395 1395 1395 1397
1463 1464 1466 1467 1469 1469 1469 1469 1468 1467 1466 1464 1463 1462 1460 1457 1455 1452 1449 1446 1443 1439 1436 1432 1428 1424 1421 1418 1415 1412 1409 1406 1404 1401 1399 1397 1395 1393 1391 1391 1390 1390 1391